P/2005 S3 ( Read )

Japanese version
Home page
Updated on February 4, 2007

---------------------------------------------------------------------

* Profile

Discovery Date September 30, 2005
Magnitude 19.2 mag
Discoverer Michael T. Read (Spacewatch)

* Orbital Elements

Epoch 2006 Jan. 25.0 TT = JDT 2453760.5
T 2006 Jan. 8.57032 TT                                  MPC
q   2.8424383            (2000.0)            P               Q
n   0.09081348     Peri.  140.45737     +0.58777533     -0.80675378
a   4.9019534      Node   273.46036     +0.72605186     +0.55903935
e   0.4201417      Incl.    3.47877     +0.35688774     +0.19137225
P  10.85

* Magnitudes Graph

        m1 = 11.5 + 5 log d + 10.0 log r

---------------------------------------------------------------------

The orbital elements are published on M.P.E.C. 2005-V90.
The magnitudes graphs are made with Comet for Windows.

---------------------------------------------------------------------

Copyright(C) Seiichi Yoshida (comet@aerith.net). All rights reserved.